Weather History for KFDR - January, 2013

Change the Weather History Date:

Monday, January 28, 2013

  Actual Average (KLTS) Record (KLTS)
Temperature  
Mean Temperature 68 °F -  
Max Temperature 80 °F 50 °F 84 °F (2015)
Min Temperature 55 °F 27 °F 6 °F (2009)
Cooling Degree Days 2    
Growing Degree Days 18 (Base 50)    
Moisture  
Dew Point 55 °F    
Average Humidity 68    
Maximum Humidity 93    
Minimum Humidity 38    
Precipitation  
Precipitation 0.00 in - - ()
Sea Level Pressure  
Sea Level Pressure 29.76 in    
Wind  
Wind Speed 13 mph (South)    
Max Wind Speed 25 mph    
Max Gust Speed 30 mph    
Visibility 10 miles    
Events      
Averages and records for this station are not official NWS values.
T = Trace of Precipitation, MM = Missing Value Source: NWS Daily Summary

Daily Weather History Graph

Daily Weather History Graph

Search for Another Location

Airport or City:

Trip Planner

Search our weather history database for the weather conditions in past years. The results will help you decide how hot, cold, wet, or windy it might be!

Date:

Astronomy

Jan. 28, 2013 Rise Set
Actual Time 7:36 AM CST 6:02 PM CST
Civil Twilight 7:09 AM CST 6:28 PM CST
Nautical Twilight 6:39 AM CST 6:59 PM CST
Astronomical Twilight 6:09 AM CST 7:28 PM CST
Moon 7:51 PM CST (1/28) 8:08 AM CST (1/28)
Length of Visible Light 11h 19m
Length of Day
10h 26m
Full, 98% of the Moon is Illuminated
Jan 28
Full
Feb 3
Last Quarter
Feb 10
New
Feb 17
First Quarter
Feb 25
Full

Hourly Weather History & Observations

Time (CST) Temp. Heat Index Dew Point Humidity Pressure Visibility Wind Dir Wind Speed Gust Speed Precip Events Conditions
12:53 AM 61.0 °F - 51.1 °F 70% 29.82 in 10.0 mi South 13.8 mph - N/A   Partly Cloudy
1:53 AM 57.9 °F - 50.0 °F 75% 29.83 in 10.0 mi SSW 9.2 mph - N/A   Clear
2:53 AM 55.9 °F - 50.0 °F 80% 29.84 in 10.0 mi SW 5.8 mph - N/A   Clear
3:53 AM 55.9 °F - 50.0 °F 80% 29.84 in 10.0 mi South 8.1 mph - N/A   Clear
4:53 AM 57.0 °F - 52.0 °F 83% 29.83 in 10.0 mi South 10.4 mph - N/A   Clear
5:53 AM 55.0 °F - 52.0 °F 89% 29.84 in 10.0 mi SSW 8.1 mph - N/A   Clear
6:53 AM 55.9 °F - 54.0 °F 93% 29.86 in 10.0 mi SW 5.8 mph - N/A   Clear
7:53 AM 60.1 °F - 57.0 °F 90% 29.86 in 10.0 mi South 15.0 mph - N/A   Clear
8:53 AM 63.0 °F - 59.0 °F 87% 29.87 in 10.0 mi South 12.7 mph - N/A   Overcast
9:53 AM 66.0 °F - 60.1 °F 81% 29.85 in 10.0 mi South 17.3 mph - N/A   Overcast
10:53 AM 68.0 °F - 60.1 °F 76% 29.84 in 10.0 mi South 19.6 mph 27.6 mph N/A   Overcast
11:53 AM 70.0 °F - 61.0 °F 73% 29.82 in 10.0 mi South 18.4 mph - N/A   Overcast
12:53 PM 73.0 °F - 60.1 °F 64% 29.77 in 10.0 mi SSW 23.0 mph 29.9 mph N/A   Overcast
1:53 PM 75.9 °F - 59.0 °F 56% 29.73 in 10.0 mi SSW 19.6 mph - N/A   Scattered Clouds
2:53 PM 80.1 °F 80.1 °F 55.0 °F 42% 29.69 in 10.0 mi SSW 25.3 mph - N/A   Scattered Clouds
3:53 PM 80.1 °F 80.0 °F 54.0 °F 40% 29.68 in 10.0 mi South 20.7 mph 29.9 mph N/A   Clear
4:53 PM 80.1 °F - 52.0 °F 38% 29.67 in 10.0 mi SSW 23.0 mph 27.6 mph N/A   Scattered Clouds
5:53 PM 75.0 °F - 52.0 °F 44% 29.66 in 10.0 mi South 13.8 mph - N/A   Clear
6:53 PM 72.0 °F - 52.0 °F 49% 29.67 in 10.0 mi South 10.4 mph - N/A   Scattered Clouds
7:53 PM 70.0 °F - 55.0 °F 59% 29.69 in 10.0 mi South 11.5 mph - N/A   Mostly Cloudy
8:53 PM 69.1 °F - 55.0 °F 61% 29.69 in 10.0 mi South 12.7 mph - N/A   Partly Cloudy
9:53 PM 70.0 °F - 55.9 °F 61% 29.67 in 10.0 mi South 15.0 mph - N/A   Clear
10:53 PM 68.0 °F - 57.0 °F 68% 29.67 in 10.0 mi South 16.1 mph - N/A   Clear
11:53 PM 68.0 °F - 57.9 °F 70% 29.67 in 10.0 mi South 17.3 mph - N/A   Clear